| time (UTC) | temp F | wind direction | speed MPH | gust MPH | rain 1hr in | rain 24hr in | rain mn in | humidity % | barometer mb |
| 20260902070031 | 76 | 11 | 3.0 | 7.0 | 0.00 | 0.00 | 0.00 | 92 | 1011.9 |
| 20260902064530 | 75 | 269 | 0.0 | 5.0 | 0.00 | 0.00 | 0.00 | 94 | 1011.9 |
| 20260902063027 | 74 | 265 | 1.0 | 7.0 | 0.00 | 0.00 | 0.00 | 97 | 1011.8 |
| 20260902061525 | 74 | 281 | 0.0 | 2.0 | 0.00 | 0.00 | 0.00 | 98 | 1011.5 |
| 20260902060025 | 75 | 281 | 0.0 | 2.0 | 0.00 | 0.00 | 0.00 | 98 | 1011.2 |
| 20260902054522 | 75 | 281 | 0.0 | 4.0 | 0.00 | 0.00 | 0.00 | 98 | 1011.3 |
| 20260902053020 | 75 | 275 | 1.0 | 6.0 | 0.00 | 0.00 | 0.00 | 98 | 1011.4 |
| 20260902051519 | 75 | 268 | 2.0 | 7.0 | 0.00 | 0.00 | 0.00 | 98 | 1011.2 |
| 20260902050019 | 76 | 259 | 1.0 | 5.0 | 0.00 | 0.00 | 0.00 | 97 | 1011.2 |
| 20260902044517 | 76 | 275 | 1.0 | 5.0 | 0.00 | 0.00 | 0.00 | 97 | 1011.3 |
| 20260902043014 | 76 | 254 | 3.0 | 8.0 | 0.00 | 0.00 | 0.00 | 96 | 1011.5 |
| 20260902041512 | 76 | 269 | 2.0 | 5.0 | 0.00 | 0.00 | 0.00 | 96 | 1011.3 |
| 20260902040011 | 76 | 263 | 2.0 | 5.0 | 0.00 | 0.00 | 0.00 | 96 | 1011.3 |
| 20260902034511 | 76 | 259 | 1.0 | 7.0 | 0.00 | 0.00 | 0.00 | 96 | 1011.4 |
| 20260902033010 | 77 | 277 | 2.0 | 6.0 | 0.00 | 0.00 | 0.00 | 95 | 1011.4 |
| 20260902031509 | 77 | 287 | 1.0 | 4.0 | 0.00 | 0.00 | 0.00 | 95 | 1011.4 |
| 20260902030011 | 76 | 307 | 2.0 | 4.0 | 0.00 | 0.00 | 0.00 | 95 | 1011.5 |
| 20260902024509 | 77 | 313 | 2.0 | 6.0 | 0.00 | 0.00 | 0.00 | 95 | 1011.6 |
| 20260902023009 | 77 | 315 | 2.0 | 7.0 | 0.00 | 0.00 | 0.00 | 95 | 1011.8 |
| 20260902021507 | 77 | 360 | 3.0 | 8.0 | 0.00 | 0.00 | 0.00 | 94 | 1011.7 |
| 20260902020009 | 77 | 284 | 3.0 | 10.0 | 0.00 | 0.00 | 0.00 | 94 | 1011.7 |
| 20260902014522 | 77 | 287 | 3.0 | 8.0 | 0.00 | 0.00 | 0.00 | 94 | 1011.5 |
| 20260902013007 | 78 | 241 | 3.0 | 8.0 | 0.00 | 0.00 | 0.00 | 93 | 1011.3 |
| 20260902011513 | 78 | 332 | 3.0 | 8.0 | 0.00 | 0.00 | 0.00 | 92 | 1011.3 |
| 20260902010006 | 79 | 330 | 3.0 | 10.0 | 0.00 | 0.00 | 0.00 | 91 | 1011.3 |
| 20260902004506 | 79 | 296 | 4.0 | 10.0 | 0.00 | 0.00 | 0.00 | 91 | 1011.3 |
| 20260902003005 | 80 | 300 | 2.0 | 5.0 | 0.00 | 0.00 | 0.00 | 90 | 1011.3 |
| 20260902001504 | 80 | 268 | 2.0 | 6.0 | 0.00 | 0.00 | 0.00 | 89 | 1011.3 |
| 20260902000004 | 80 | 237 | 2.0 | 7.0 | 0.00 | 0.00 | 0.00 | 88 | 1011.3 |
| 20260901234503 | 80 | 298 | 0.0 | 0.0 | 0.00 | 0.00 | 0.00 | 86 | 1011.3 |
| 20260901233004 | 81 | 298 | 0.0 | 2.0 | 0.00 | 0.00 | 0.00 | 84 | 1011.3 |
| 20260901231503 | 83 | 298 | 0.0 | 2.0 | 0.00 | 0.00 | 0.00 | 81 | 1011.4 |
| 20260901230001 | 84 | 298 | 1.0 | 3.0 | 0.00 | 0.00 | 0.00 | 78 | 1011.3 |
| 20260901224608 | 85 | 298 | 2.0 | 5.0 | 0.00 | 0.00 | 0.00 | 76 | 1011.4 |
| 20260901223100 | 86 | 53 | 2.0 | 7.0 | 0.00 | 0.00 | 0.00 | 75 | 1011.5 |
| 20260901221601 | 85 | 25 | 1.0 | 3.0 | 0.00 | 0.00 | 0.00 | 75 | 1011.6 |
| 20260901220052 | 82 | 130 | 0.0 | 4.0 | 0.00 | 0.00 | 0.00 | 80 | 1011.7 |
| 20260901214559 | 82 | 130 | 2.0 | 4.0 | 0.00 | 0.00 | 0.00 | 80 | 1011.8 |
| 20260901213055 | 81 | 133 | 2.0 | 6.0 | 0.00 | 0.00 | 0.00 | 80 | 1011.7 |
| 20260901211546 | 81 | 115 | 2.0 | 6.0 | 0.00 | 0.00 | 0.00 | 82 | 1011.7 |
| 20260901210056 | 80 | 108 | 2.0 | 7.0 | 0.00 | 0.00 | 0.00 | 83 | 1011.9 |
| 20260901204544 | 81 | 88 | 2.0 | 7.0 | 0.00 | 0.00 | 0.00 | 86 | 1012.1 |
| 20260901203045 | 80 | 114 | 2.0 | 6.0 | 0.00 | 0.00 | 0.00 | 86 | 1012.1 |
| 20260901201541 | 80 | 70 | 2.0 | 6.0 | 0.00 | 0.00 | 0.00 | 88 | 1012.2 |
| 20260901200040 | 79 | 91 | 2.0 | 7.0 | 0.00 | 0.00 | 0.00 | 90 | 1012.3 |
| 20260901194549 | 79 | 134 | 2.0 | 8.0 | 0.00 | 0.00 | 0.00 | 89 | 1012.4 |
| 20260901193040 | 80 | 109 | 4.0 | 9.0 | 0.00 | 0.00 | 0.00 | 87 | 1012.6 |
| 20260901191548 | 80 | 119 | 2.0 | 8.0 | 0.00 | 0.00 | 0.00 | 89 | 1012.6 |
| 20260901190047 | 80 | 103 | 5.0 | 9.0 | 0.00 | 0.00 | 0.00 | 88 | 1012.8 |
| 20260901184538 | 79 | 96 | 4.0 | 8.0 | 0.00 | 0.00 | 0.00 | 89 | 1012.9 |
| 20260901183059 | 80 | 108 | 2.0 | 7.0 | 0.00 | 0.00 | 0.00 | 87 | 1013.0 |
| 20260901181536 | 79 | 111 | 4.0 | 10.0 | 0.00 | 0.00 | 0.00 | 89 | 1013.2 |
| 20260901180036 | 79 | 93 | 6.0 | 10.0 | 0.00 | 0.00 | 0.00 | 89 | 1013.2 |
| 20260901174535 | 79 | 108 | 4.0 | 8.0 | 0.00 | 0.00 | 0.00 | 88 | 1013.2 |
| 20260901173039 | 79 | 105 | 4.0 | 8.0 | 0.00 | 0.00 | 0.00 | 87 | 1013.2 |
| 20260901171534 | 80 | 111 | 3.0 | 8.0 | 0.00 | 0.00 | 0.00 | 89 | 1013.3 |
| 20260901170033 | 80 | 96 | 3.0 | 6.0 | 0.00 | 0.00 | 0.00 | 87 | 1013.4 |
| 20260901164532 | 79 | 103 | 4.0 | 7.0 | 0.00 | 0.00 | 0.00 | 89 | 1013.5 |
| 20260901163031 | 78 | 93 | 3.0 | 7.0 | 0.00 | 0.00 | 0.00 | 89 | 1013.5 |
| 20260901161529 | 77 | 90 | 3.0 | 7.0 | 0.00 | 0.00 | 0.00 | 90 | 1013.7 |
| 20260901160035 | 78 | 115 | 2.0 | 6.0 | 0.00 | 0.00 | 0.00 | 89 | 1013.7 |
| 20260901154539 | 79 | 119 | 2.0 | 6.0 | 0.00 | 0.00 | 0.00 | 88 | 1013.8 |
| 20260901153038 | 80 | 91 | 1.0 | 3.0 | 0.00 | 0.00 | 0.00 | 87 | 1013.9 |
| 20260901151523 | 78 | 91 | 0.0 | 3.0 | 0.00 | 0.00 | 0.00 | 90 | 1013.9 |
| 20260901150021 | 77 | 90 | 0.0 | 4.0 | 0.00 | 0.00 | 0.00 | 90 | 1013.8 |
| 20260901144522 | 76 | 89 | 2.0 | 4.0 | 0.00 | 0.00 | 0.00 | 91 | 1013.8 |
| 20260901143017 | 75 | 94 | 2.0 | 4.0 | 0.00 | 0.00 | 0.00 | 93 | 1013.5 |
| 20260901141518 | 75 | 97 | 3.0 | 4.0 | 0.00 | 0.00 | 0.00 | 92 | 1013.3 |
| 20260901140015 | 76 | 101 | 2.0 | 4.0 | 0.00 | 0.00 | 0.00 | 91 | 1013.3 |
| 20260901134515 | 76 | 84 | 2.0 | 4.0 | 0.00 | 0.00 | 0.00 | 91 | 1013.4 |
| 20260901133012 | 76 | 331 | 0.0 | 3.0 | 0.00 | 0.00 | 0.00 | 93 | 1013.4 |
| 20260901131511 | 75 | 344 | 0.0 | 2.0 | 0.00 | 0.00 | 0.00 | 95 | 1013.3 |
| 20260901130006 | 74 | 344 | 0.0 | 1.0 | 0.00 | 0.14 | 0.00 | 96 | 1013.5 |
| 20260901124504 | 73 | 344 | 0.0 | 1.0 | 0.00 | 0.14 | 0.00 | 99 | 1013.5 |
| 20260901123002 | 72 | 344 | 0.0 | 0.0 | 0.00 | 0.14 | 0.00 | 100 | 1013.5 |
| 20260901121608 | 70 | 344 | 0.0 | 0.0 | 0.00 | 0.14 | 0.00 | 100 | 1013.6 |
| 20260901120111 | 69 | 344 | 0.0 | 2.0 | 0.00 | 0.16 | 0.00 | 100 | 1013.3 |
| 20260901114600 | 68 | 344 | 0.0 | 1.0 | 0.00 | 0.16 | 0.00 | 100 | 1013.1 |
| 20260901113100 | 68 | 344 | 0.0 | 2.0 | 0.00 | 0.16 | 0.00 | 100 | 1013.0 |
| 20260901111601 | 68 | 344 | 0.0 | 1.0 | 0.00 | 0.16 | 0.00 | 100 | 1012.6 |
| 20260901110052 | 68 | 344 | 0.0 | 1.0 | 0.00 | 0.16 | 0.00 | 100 | 1012.4 |
| 20260901104551 | 68 | 344 | 0.0 | 1.0 | 0.00 | 0.16 | 0.00 | 100 | 1012.3 |
| 20260901103059 | 68 | 344 | 0.0 | 0.0 | 0.00 | 0.16 | 0.00 | 100 | 1012.3 |
| 20260901101551 | 68 | 344 | 0.0 | 0.0 | 0.00 | 0.16 | 0.00 | 100 | 1012.2 |
| 20260901100049 | 69 | 344 | 1.0 | 2.0 | 0.00 | 0.16 | 0.00 | 100 | 1012.2 |
| 20260901094553 | 69 | 344 | 0.0 | 2.0 | 0.00 | 0.16 | 0.00 | 100 | 1012.2 |
| 20260901093051 | 69 | 344 | 0.0 | 2.0 | 0.00 | 0.16 | 0.00 | 100 | 1012.3 |
| 20260901091551 | 68 | 344 | 0.0 | 2.0 | 0.00 | 0.16 | 0.00 | 100 | 1012.3 |
| 20260901090056 | 68 | 344 | 0.0 | 0.0 | 0.00 | 0.16 | 0.00 | 100 | 1012.1 |
| 20260901084544 | 68 | 344 | 1.0 | 2.0 | 0.00 | 0.16 | 0.00 | 100 | 1011.9 |
| 20260901083044 | 68 | 344 | 0.0 | 2.0 | 0.00 | 0.16 | 0.00 | 100 | 1012.0 |
| 20260901081542 | 68 | 344 | 0.0 | 0.0 | 0.00 | 0.16 | 0.00 | 99 | 1011.9 |
| 20260901080054 | 69 | 344 | 2.0 | 3.0 | 0.00 | 0.22 | 0.00 | 99 | 1011.9 |
| 20260901074539 | 69 | 344 | 0.0 | 1.0 | 0.00 | 0.22 | 0.00 | 99 | 1011.9 |
| 20260901073039 | 69 | 344 | 0.0 | 1.0 | 0.00 | 0.22 | 0.00 | 99 | 1011.9 |
| 20260901071537 | 69 | 344 | 0.0 | 2.0 | 0.00 | 0.22 | 0.00 | 98 | 1012.0 |